Station 41029 - Capers Nearshore, SC (CAP2) Image indicating link to RSS feed of recent meteorological observations for station 41029


Conditions at 41029 as of
(2:08 am EDT)
0608 GMT on 06/21/2024:
     

Click on the graph icon in the table below to see a time series plot of the last five days of that observation.

5-day plot - Wind Direction Wind Direction (WDIR): E ( 90 deg true )
5-day plot - Wind Speed Wind Speed (WSPD):9.0 m/s
5-day plot - Wind Gust Wind Gust (GST):13.0 m/s
5-day plot - Atmospheric Pressure Atmospheric Pressure (PRES):1022.3 mb
5-day plot - Air Temperature Air Temperature (ATMP): 26.4 °C
5-day plot - Water Temperature Water Temperature (WTMP): 27.0 °C
5-day plot - Salinity Salinity (SAL): 34.63 psu
5-day plot - Dew Point Dew Point (DEWP): 21.6 °C
5-day plot - Heat Index Heat Index (HEAT): 28.2 °C
5-day plot - Wind Speed at 10 Meters Wind Speed at 10 meters (WSPD10M): 11 m/s
5-day plot - Wind Speed at 20 Meters Wind Speed at 20 meters (WSPD20M): 12 m/s
5-day plot -  Wind Speed, Wind Gust and Atmospheric Pressure Combined plot of Wind Speed, Gust, and Air Pressure
Previous observations
TIME
(EDT)
5-day plot - Wind Direction
WDIR
 
5-day plot - Wind Speed
WSPD
m/s
5-day plot - Wind Gust
GST
m/s
5-day plot - Wave Height
WVHT
m
5-day plot - Dominant Wave Period
DPD
sec
5-day plot - Average Wave Period
APD
sec
5-day plot - Mean Wave Direction
MWD
 
5-day plot - Atmospheric Pressure
PRES
mb
5-day plot - Pressure Tendency
PTDY
mb
5-day plot - Air Temperature
ATMP
°C
5-day plot - Water Temperature
WTMP
°C
5-day plot - Dew Point
DEWP
°C
5-day plot - Salinity
SAL
psu
5-day plot - Visibility
VIS
km
5-day plot - Tide (above MLLW)
TIDE
m
2024-06-21 01:08 am E 10.0 13.0----1022.5- 26.1 27.0 22.2 34.73--
2024-06-21 12:08 am E 10.0 13.0----1022.8- 25.9 27.0 22.0 34.82--
2024-06-20 11:08 pm E 9.0 12.0----1023.1- 26.0 27.1 22.2 34.85--
2024-06-20 10:08 pm E 9.0 12.0----1022.8- 26.3 27.1 21.1 34.81--
2024-06-20 09:08 pm E 8.0 12.0----1022.6- 26.3 27.2 20.9 34.84--
2024-06-20 08:08 pm E 9.0 12.0----1022.7- 26.5 27.2 21.1 34.86--
2024-06-20 07:08 pm E 9.0 13.0----1022.7- 26.2 27.2 21.8 34.85--
2024-06-20 06:08 pm E 10.0 14.0----1022.9- 26.1 27.2 21.6 34.81--
2024-06-20 05:08 pm E 10.0 14.0----1023.1- 26.1 27.3 22.1 34.82--
2024-06-20 04:08 pm E 10.0 14.0----1023.7- 26.4 27.3 21.2 34.82--
2024-06-20 03:08 pm E 10.0 13.0----1024.3- 26.4 27.2 20.4 34.83--
2024-06-20 02:08 pm E 9.0 12.0----1024.8- 26.3 27.2 21.3 34.84--
2024-06-20 01:08 pm E 11.0 14.0----1025.1- 26.2 27.2 21.8 34.87--
2024-06-20 12:08 pm E 7.0 9.0----1025.4- 26.3 27.2 21.2 34.88--
2024-06-20 11:08 am E 8.0 12.0----1024.8- 25.8 27.1 22.1 34.73--
2024-06-20 10:08 am E 9.0 13.0----1024.7- 25.8 27.2 22.1 34.72--
2024-06-20 09:08 am E 8.0 12.0----1024.2- 26.3 27.2 21.1 34.74--
2024-06-20 08:08 am E 8.0 11.0----1023.9- 26.3 27.2 21.6 34.75--
2024-06-20 07:08 am E 8.0 11.0----1023.0- 26.1 27.2 21.4 34.75--
2024-06-20 06:08 am E 8.0 11.0----1022.7- 26.0 27.2 21.2 34.72--
2024-06-20 05:08 am E 7.0 10.0----1022.3- 25.9 27.3 21.0 34.65--
2024-06-20 04:08 amESE 7.0 10.0----1022.2- 26.1 27.3 21.1 34.59--
2024-06-20 03:08 am E 7.0 10.0----1022.4- 26.3 27.3 20.1 34.56--

Ocean Conditions at 41029 as of
(2:08 am EDT)
0608 GMT on 06/21/2024:

These oceanographic data are displayed in rounded times.

     

Click on the graph icon in the table below to see a time series plot of the last five days of that observation.

Depth (DEPTH): 0.0 m
5-day plot - Ocean Temperature Ocean Temperature (OTMP):27.03 °C
5-day plot - Salinity Salinity (SAL):34.63 psu
Previous observations
TIME
(EDT)
DEPTH
m
5-day plot - Ocean Temperature
OTMP
°C
5-day plot - Conductivity
COND
mS/cm
5-day plot - Salinity
SAL
psu
5-day plot - Oxygen Concentration
O2%
%
5-day plot - Oxygen Concentration
O2PPM
ppm
5-day plot - Chlorophyll
CLCON
ug/l
5-day plot - Turbidity
TURB
FTU
5-day plot - pH
PH
 
5-day plot - Eh
EH
mv
2024-06-21 01:08 am 0.027.02-34.73------
2024-06-21 12:08 am 0.027.04-34.82------
2024-06-20 11:08 pm 0.027.07-34.85------
2024-06-20 10:08 pm 0.027.11-34.81------
2024-06-20 09:08 pm 0.027.15-34.84------
2024-06-20 08:08 pm 0.027.19-34.86------
2024-06-20 07:08 pm 0.027.21-34.85------
2024-06-20 06:08 pm 0.027.22-34.81------
2024-06-20 05:08 pm 0.027.26-34.82------
2024-06-20 04:08 pm 0.027.26-34.82------
2024-06-20 03:08 pm 0.027.22-34.83------
2024-06-20 02:08 pm 0.027.20-34.84------
2024-06-20 01:08 pm 0.027.21-34.87------
2024-06-20 12:08 pm 0.027.16-34.88------
2024-06-20 11:08 am 0.027.14-34.73------
2024-06-20 10:08 am 0.027.18-34.72------
2024-06-20 09:08 am 0.027.20-34.74------
2024-06-20 08:08 am 0.027.18-34.75------
2024-06-20 07:08 am 0.027.21-34.75------
2024-06-20 06:08 am 0.027.23-34.72------
2024-06-20 05:08 am 0.027.26-34.65------
2024-06-20 04:08 am 0.027.29-34.59------
2024-06-20 03:08 am 0.027.33-34.56------